Flag for U.S.A. Weather past 2 weeks in Kalamazoo, Michigan, U.S.A.

Now
36 °F

Clear.


Feels Like: 36 °F
Forecast: 33 / 53 °F
Wind: No wind

Location: Kalamazoo / Battle Creek International Airport

Current Time: Oct 22, 2014 at 12:05:30 AM

Latest Report: Oct 21, 2014 at 10:53 PM


Visibility: 9 mi

Pressure: 30.27 "Hg

Humidity: 89%

Dew point: 33 °F

Location of KalamazooLocation

Historic Weather in Kalamazoo — Graph

°F

Kalamazoo temperature yesterday

Maximum temperature yesterday: 49 °F (at 11:53 AM)
Minimum temperature yesterday: 36 °F (at 10:53 PM)
Average temperature yesterday: 46 °F

Past Weeks' High & Low Weather Summary

 TemperatureHumidityPressure
High72 °F (Oct 13, 4:53 PM)97% (Oct 10, 8:53 AM)30.28 "Hg (Oct 10, 8:53 AM)
Low29 °F (Oct 19, 7:53 AM)29% (Oct 12, 4:53 PM)29.54 "Hg (Oct 14, 3:53 PM)
Average51 °F76%29.93 "Hg
* Reported Oct 6 11:53 PM — Oct 21 10:53 PM, Kalamazoo, Weather by CustomWeather, © 2014

Note: Actual official high and low records may vary slightly from our data, if they occured in-between our weather recording intervals... More about our weather records

Advertising

Kalamazoo weather history for previous 24 hours

 ConditionsComfort  
Time TempWeatherWind HumidityBarometerVisibility
10:53 PM
Oct 21
36 °FClear.No wind89%30.27 "Hg9 mi
9:53 PM37 °FClear.No wind93%30.25 "Hg10 mi
8:53 PM40 °FClear.No wind80%30.23 "Hg10 mi
7:53 PM43 °FClear.No wind76%30.22 "Hg10 mi
6:53 PM47 °FPartly sunny.8 mph69%30.20 "Hg10 mi
5:53 PM49 °FMostly cloudy.9 mph66%30.18 "Hg10 mi
4:53 PM48 °FOvercast.10 mph71%30.16 "Hg10 mi
3:53 PM48 °FOvercast.13 mph71%30.15 "Hg10 mi
2:53 PM49 °FOvercast.13 mph66%30.14 "Hg10 mi
1:53 PM48 °FOvercast.9 mph77%30.14 "Hg10 mi
12:53 PM49 °FMostly cloudy.13 mph74%30.13 "Hg10 mi
11:53 AM49 °FMostly cloudy.10 mph84%30.11 "Hg10 mi
10:53 AM48 °FFog.12 mph86%30.10 "Hg2 mi
9:53 AM47 °FLow clouds.12 mph86%30.08 "Hg10 mi
8:53 AM46 °FLight rain. Low clouds.10 mph89%30.06 "Hg9 mi
7:53 AM46 °FLight rain. Overcast.10 mph86%30.03 "Hg10 mi
6:53 AM46 °FOvercast.10 mph86%30.01 "Hg10 mi
6:03 AM46 °FOvercast.10 mph86%29.99 "Hg10 mi
5:53 AM46 °FLight rain. Overcast.9 mph86%30.00 "Hg10 mi
4:53 AM47 °FLight rain. Overcast.9 mph83%29.97 "Hg9 mi
3:53 AM47 °FOvercast.10 mph83%29.96 "Hg10 mi
2:53 AM47 °FMostly cloudy.12 mph80%29.96 "Hg10 mi
1:53 AM47 °FOvercast.10 mph83%29.95 "Hg10 mi
12:53 AM48 °FOvercast.9 mph80%29.95 "Hg10 mi
Weather by CustomWeather, © 2014

See weather overviewHow to use our weather pages